Location: Wien
(48.2082°N, 16.3738°E)
Time: 22:59:25
(UTC+01:00)

Tiangong - Visible Passes

Search period start: 29 November 2023 00:00
Search period end: 09 December 2023 00:00
Orbit: 374 x 384 km, 41.5° (Epoch: 29 November)

Date Brightness Start Highest point End Pass type
(mag) Time Alt. Az. Time Alt. Az. Time Alt. Az.
29 Nov 0.0 17:01:13 10° WSW 17:03:49 23° S 17:06:23 10° SE visible
29 Nov 0.8 18:38:27 10° SW 18:39:36 12° SSW 18:39:36 12° SSW visible
30 Nov 0.5 17:36:29 10° WSW 17:38:37 17° SSW 17:40:45 10° SSE visible
01 Dec 0.3 16:34:47 10° WSW 16:37:14 21° S 16:39:41 10° SE visible
02 Dec 0.8 17:10:15 10° SW 17:11:49 13° SSW 17:13:24 10° S visible
